This is the latest recevied weather packets stored in our database for station/object EA3KZ-1. If no packets are shown the sender has not sent any weather packets the latest 10 day(s).
| Time | Temp. | Humidity | Pressure | Rain* | Wind** | Luminosity | Snow |
|---|---|---|---|---|---|---|---|
| 1777423841 | 14.44° C | 90% | 1008.9 hPa | 0 mm | - | - | - |
| 1777423238 | 14.44° C | 90% | 1009.2 hPa | 0 mm | - | - | - |
| 1777422635 | 14.44° C | 89% | 1008.9 hPa | 0 mm | - | - | - |
| 1777422032 | 14.44° C | 89% | 1009 hPa | 0 mm | - | - | - |
| 1777421430 | 14.44° C | 87% | 1009.1 hPa | 0 mm | - | - | - |
| 1777420827 | 14.44° C | 87% | 1009.3 hPa | 0 mm | - | - | - |
| 1777420225 | 14.44° C | 86% | 1009.2 hPa | 0 mm | - | - | - |
| 1777419622 | 14.44° C | 85% | 1009.4 hPa | 0 mm | - | - | - |
| 1777419019 | 14.44° C | 83% | 1009.6 hPa | 0 mm | - | - | - |
| 1777418416 | 14.44° C | 82% | 1009.6 hPa | 0 mm | - | - | - |
| 1777417874 | 14.44° C | 81% | 1009.6 hPa | 0 mm | - | - | - |
| 1777417271 | 14.44° C | 82% | 1009.3 hPa | 0 mm | - | - | - |
| 1777416669 | 14.44° C | 82% | 1009.6 hPa | 0 mm | - | - | - |
| 1777416066 | 14.44° C | 83% | 1009.5 hPa | 0 mm | - | - | - |
| 1777415463 | 14.44° C | 86% | 1009.5 hPa | 0 mm | - | - | - |
| 1777414861 | 15° C | 85% | 1009.5 hPa | 0 mm | - | - | - |
| 1777414258 | 15° C | 82% | 1009.4 hPa | 0 mm | - | - | - |
| 1777413656 | 15.56° C | 79% | 1009.2 hPa | 0 mm | - | - | - |
| 1777413053 | 15.56° C | 77% | 1008.9 hPa | 0 mm | - | - | - |
| 1777412451 | 15.56° C | 77% | 1008.6 hPa | 0 mm | - | - | - |
| 1777411848 | 15.56° C | 77% | 1008.3 hPa | 0 mm | - | - | - |
| 1777411245 | 15.56° C | 76% | 1008.4 hPa | 0 mm | - | - | - |
| 1777410642 | 15.56° C | 76% | 1008.5 hPa | 0 mm | - | - | - |
| 1777410040 | 16.11° C | 76% | 1008.4 hPa | 0 mm | - | - | - |
| 1777409437 | 16.11° C | 76% | 1008.3 hPa | 0 mm | - | - | - |
* Rain latest hour (hover to see other rain measurements)
** Current wind speed in m/s (hover to see current wind gust speed)